GW0751 Weather Reports


Display with metric or nautical units.
time (UTC)temp
F
wind
direction
speed
MPH
gust
MPH
rain 1hr
in
rain 24hr
in
rain mn
in
humidity
%
barometer
mb
20260510152440 51 68 2.0 2.0 0.00 0.00 0.00 97 1014.0
20260510151921 52 90 2.0 2.0 0.00 0.00 0.00 97 1013.9
20260510151406 51 113 3.0 3.0 0.00 0.00 0.00 97 1013.9
20260510150326 51 270 0.0 0.0 0.00 0.00 0.00 97 1013.8
20260510145805 50 45 2.0 2.0 0.00 0.00 0.00 97 1013.8
20260510145250 50 45 1.0 1.0 0.00 0.00 0.00 97 1013.7
20260510144730 50 68 1.0 1.0 0.00 0.00 0.00 97 1013.7
20260510144210 50 270 0.0 0.0 0.00 0.00 0.00 97 1013.7
20260510143135 50 90 0.0 0.0 0.00 0.00 0.00 97 1013.6
20260510142635 50 113 1.0 1.0 0.00 0.00 0.00 97 1013.6
20260510142116 49 113 2.0 2.0 0.00 0.00 0.00 97 1013.6
20260510141556 49 90 0.0 0.0 0.00 0.00 0.00 97 1013.5
20260510141035 49 90 2.0 2.0 0.00 0.00 0.00 97 1013.5
20260510140502 49 45 2.0 2.0 0.00 0.00 0.00 97 1013.3
20260510135941 49 45 0.0 0.0 0.00 0.00 0.00 97 1013.3
20260510135420 49 338 0.0 0.0 0.00 0.00 0.00 97 1013.1
20260510134905 49 113 0.0 0.0 0.00 0.00 0.00 97 1013.1
20260510134346 48 113 0.0 0.0 0.00 0.00 0.00 97 1013.0
20260510133825 48 90 0.0 0.0 0.00 0.00 0.00 97 1013.0
20260510132233 48 68 0.0 0.0 0.00 0.00 0.00 97 1012.9
20260510131730 48 90 0.0 0.0 0.00 0.00 0.00 97 1012.9
20260510131210 48 68 0.0 0.0 0.00 0.00 0.00 97 1012.9
20260510130651 48 113 0.0 0.0 0.00 0.00 0.00 97 1012.9
20260510130135 48 90 0.0 0.0 0.00 0.00 0.00 97 1012.9
20260510125616 48 113 0.0 0.0 0.00 0.00 0.00 97 1012.9
20260510124536 48 68 0.0 0.0 0.00 0.00 0.00 97 1013.0
20260510124020 48 270 0.0 0.0 0.00 0.00 0.00 97 1013.0
20260510123501 48 158 0.0 0.0 0.00 0.00 0.00 97 1013.0
20260510122421 48 270 0.0 0.0 0.00 0.00 0.00 97 1012.9
20260510121406 48 225 0.0 0.0 0.00 0.00 0.00 97 1012.9
20260510120326 48 225 0.0 0.0 0.00 0.00 0.00 97 1012.9
20260510115806 48 113 0.0 0.0 0.00 0.00 0.00 97 1012.9
20260510115250 48 225 0.0 0.0 0.00 0.00 0.00 97 1012.9
20260510114730 48 90 0.0 0.0 0.00 0.00 0.00 97 1012.9
20260510114211 48 158 0.0 0.0 0.00 0.00 0.00 97 1013.0
20260510113650 48 113 0.0 0.0 0.00 0.00 0.00 97 1013.0
20260510113135 48 90 0.0 0.0 0.00 0.00 0.00 97 1013.0
20260510112616 48 45 0.0 0.0 0.00 0.00 0.00 97 1013.0
20260510112056 48 23 0.0 0.0 0.00 0.00 0.00 97 1013.0
20260510111536 48 45 1.0 1.0 0.00 0.00 0.00 97 1013.0
20260510111021 48 45 0.0 0.0 0.00 0.00 0.00 97 1013.0
20260510110501 49 90 0.0 0.0 0.00 0.00 0.00 97 1013.0
20260510105940 49 158 0.0 0.0 0.00 0.00 0.00 97 1013.0
20260510105420 49 135 0.0 0.0 0.00 0.00 0.00 97 1012.9
20260510104906 49 45 0.0 0.0 0.00 0.00 0.00 97 1012.9
20260510104345 49 158 0.0 0.0 0.00 0.00 0.00 97 1012.9
20260510103826 49 158 0.0 0.0 0.00 0.00 0.00 97 1012.9
20260510102751 49 158 0.0 0.0 0.00 0.00 0.00 97 1012.9
20260510102231 49 158 0.0 0.0 0.00 0.00 0.00 97 1012.9
20260510101711 49 113 0.0 0.0 0.00 0.00 0.00 97 1012.9
20260510101151 49 45 0.0 0.0 0.00 0.00 0.00 97 1012.9
20260510100636 49 90 0.0 0.0 0.00 0.00 0.00 97 1012.9
20260510095556 49 113 0.0 0.0 0.00 0.00 0.00 97 1012.9
20260510095036 49 113 0.0 0.0 0.00 0.00 0.00 97 1012.9
20260510094521 49 135 0.0 0.0 0.00 0.00 0.00 97 1012.9
20260510094001 49 68 0.0 0.0 0.00 0.00 0.00 97 1012.9
20260510093441 49 68 0.0 0.0 0.00 0.00 0.00 96 1012.9
20260510092921 49 23 0.0 0.0 0.00 0.00 0.00 96 1012.9
20260510092407 49 113 0.0 0.0 0.00 0.00 0.00 96 1012.9
20260510091846 49 113 0.0 0.0 0.00 0.00 0.00 96 1012.9
20260510091326 49 113 0.0 0.0 0.00 0.00 0.00 96 1012.9
20260510090806 48 90 0.0 0.0 0.00 0.00 0.00 96 1012.9
20260510090251 48 113 0.0 0.0 0.00 0.00 0.00 96 1013.0
20260510085211 48 135 0.0 0.0 0.00 0.00 0.00 95 1013.0
20260510084136 48 135 0.0 0.0 0.00 0.00 0.00 95 1013.1
20260510083616 48 180 0.0 0.0 0.00 0.00 0.00 95 1013.1
20260510083056 48 158 0.0 0.0 0.00 0.00 0.00 95 1013.1
20260510082536 48 225 0.0 0.0 0.00 0.00 0.00 95 1013.1
20260510082021 48 0 0.0 0.0 0.00 0.00 0.00 95 1013.1
20260510081501 48 0 0.0 0.0 0.00 0.00 0.00 94 1013.1
20260510080941 48 0 0.0 0.0 0.00 0.00 0.00 93 1013.1
20260510075906 48 225 0.0 0.0 0.00 0.00 0.00 93 1013.1
20260510075346 48 338 0.0 0.0 0.00 0.00 0.00 93 1013.1
20260510074846 48 315 0.0 0.0 0.00 0.00 0.00 93 1013.1
20260510074326 48 338 0.0 0.0 0.00 0.00 0.00 93 1013.1
20260510073806 48 270 0.0 0.0 0.00 0.00 0.00 93 1013.1
20260510073252 49 225 0.0 0.0 0.00 0.00 0.00 93 1013.1
20260510072212 49 315 0.0 0.0 0.00 0.00 0.00 93 1013.1
20260510071651 49 225 0.0 0.0 0.00 0.00 0.00 93 1013.1
20260510071136 49 180 0.0 0.0 0.00 0.00 0.00 93 1013.1
20260510070616 49 225 0.0 0.0 0.00 0.00 0.00 93 1013.0
20260510070056 50 203 0.0 0.0 0.00 0.00 0.00 92 1013.0
20260510065536 50 225 0.0 0.0 0.00 0.00 0.00 92 1013.0
20260510065021 50 225 0.0 0.0 0.00 0.00 0.00 92 1013.0
20260510064501 50 270 0.0 0.0 0.00 0.00 0.00 92 1013.0
20260510063942 50 225 0.0 0.0 0.00 0.00 0.00 92 1012.9
20260510063421 50 180 0.0 0.0 0.00 0.00 0.00 92 1012.9
20260510062906 50 338 0.0 0.0 0.00 0.00 0.00 92 1013.0
20260510062346 51 158 0.0 0.0 0.00 0.00 0.00 92 1013.0
20260510061826 51 225 0.0 0.0 0.00 0.00 0.00 92 1013.0
20260510061306 51 270 0.0 0.0 0.00 0.00 0.00 92 1013.0
20260510060231 51 293 0.0 0.0 0.00 0.00 0.00 92 1012.9
20260510055211 52 225 0.0 0.0 0.00 0.00 0.00 92 1013.0
20260510054651 52 180 0.0 0.0 0.00 0.00 0.00 92 1013.0
20260510054136 52 158 0.0 0.0 0.00 0.00 0.00 92 1012.9
20260510053616 53 158 0.0 0.0 0.00 0.00 0.00 91 1012.9
20260510050941 54 225 0.0 0.0 0.00 0.00 0.00 90 1012.9
20260510050421 54 225 0.0 0.0 0.00 0.00 0.00 90 1012.8
20260510045906 54 270 0.0 0.0 0.00 0.00 0.00 90 1012.8
20260510045346 55 225 0.0 0.0 0.00 0.00 0.00 90 1012.6
20260510044307 55 225 0.0 0.0 0.00 0.00 0.00 90 1012.6
20260510043751 55 225 0.0 0.0 0.00 0.00 0.00 88 1012.6
20260510043231 55 225 0.0 0.0 0.00 0.00 0.00 88 1012.6
20260510042711 55 225 0.0 0.0 0.00 0.00 0.00 88 1012.4
20260510042151 56 225 0.0 0.0 0.00 0.00 0.00 86 1012.4
20260510041631 56 225 0.0 0.0 0.00 0.00 0.00 83 1012.4
20260510041116 56 203 0.0 0.0 0.00 0.00 0.00 83 1012.4
20260510040556 57 270 0.0 0.0 0.00 0.00 0.00 83 1012.2
20260510040036 57 180 0.0 0.0 0.00 0.00 0.00 85 1012.2
20260510035002 58 225 0.0 0.0 0.00 0.00 0.00 83 1012.1
20260510034441 58 90 0.0 0.0 0.00 0.00 0.00 83 1012.1
20260510033921 59 90 0.0 0.0 0.00 0.00 0.00 82 1012.1
20260510033347 59 90 0.0 0.0 0.00 0.00 0.00 82 1012.1
20260510032826 60 68 1.0 1.0 0.00 0.00 0.00 80 1011.9
20260510032307 60 68 0.0 0.0 0.00 0.00 0.00 79 1011.9
20260510031747 61 338 0.0 0.0 0.00 0.00 0.00 78 1011.9
20260510031231 62 68 0.0 0.0 0.00 0.00 0.00 77 1011.9
20260510030712 62 45 0.0 0.0 0.00 0.00 0.00 76 1011.9
20260510030151 63 45 0.0 0.0 0.00 0.00 0.00 75 1011.9
20260510025631 63 90 0.0 0.0 0.00 0.00 0.00 74 1011.9
20260510025116 64 338 0.0 0.0 0.00 0.00 0.00 73 1011.7
20260510024556 64 23 2.0 2.0 0.00 0.00 0.00 72 1011.7
20260510024037 65 45 2.0 2.0 0.00 0.00 0.00 71 1011.6
20260510023516 66 68 3.0 3.0 0.00 0.00 0.00 71 1011.6
20260510023001 67 90 2.0 2.0 0.00 0.00 0.00 69 1011.6
20260510022442 67 45 3.0 3.0 0.00 0.00 0.00 67 1011.6
20260510021921 68 90 3.0 3.0 0.00 0.00 0.00 66 1011.6
20260510021401 69 23 3.0 3.0 0.00 0.00 0.00 65 1011.6
20260510020846 71 23 3.0 3.0 0.00 0.00 0.00 63 1011.6
20260510020307 72 90 3.0 3.0 0.00 0.00 0.00 61 1011.7
20260510015746 74 0 2.0 2.0 0.00 0.00 0.00 59 1011.7
20260510015231 74 338 4.0 4.0 0.00 0.00 0.00 59 1011.6
20260510014711 74 90 3.0 3.0 0.00 0.00 0.00 58 1011.6
20260510014151 75 23 4.0 4.0 0.00 0.00 0.00 57 1011.6
20260510013116 77 90 4.0 4.0 0.00 0.00 0.00 56 1011.6
20260510012556 80 90 4.0 4.0 0.00 0.00 0.00 55 1011.6
20260510012056 82 45 3.0 3.0 0.00 0.00 0.00 52 1011.6
20260510011537 85 113 3.0 3.0 0.00 0.00 0.00 51 1011.5
20260510011016 87 248 2.0 2.0 0.00 0.00 0.00 43 1011.5
20260510010517 88 90 3.0 3.0 0.00 0.00 0.00 45 1011.6
20260510005956 88 248 3.0 3.0 0.00 0.00 0.00 40 1011.6
20260510005441 88 225 3.0 3.0 0.00 0.00 0.00 41 1011.7
20260510004921 88 315 4.0 4.0 0.00 0.00 0.00 42 1011.7
20260510004402 90 248 3.0 3.0 0.00 0.00 0.00 40 1011.7
20260510002246 90 248 5.0 5.0 0.00 0.00 0.00 39 1011.9
20260510001212 90 225 3.0 3.0 0.00 0.00 0.00 40 1011.9
20260510000652 89 158 3.0 3.0 0.00 0.00 0.00 41 1012.1
20260510000131 89 225 3.0 3.0 0.00 0.00 0.00 41 1012.1
20260509235611 87 225 4.0 4.0 0.00 0.00 0.00 42 1012.1
20260509235056 89 203 4.0 4.0 0.00 0.00 0.00 41 1012.1
20260509233957 86 225 3.0 3.0 0.00 0.00 0.00 45 1012.2
20260509233442 88 203 3.0 3.0 0.00 0.00 0.00 43 1012.2
20260509232922 87 248 4.0 4.0 0.00 0.00 0.00 43 1012.2
20260509232402 87 225 4.0 4.0 0.00 0.00 0.00 43 1012.2
20260509231841 88 180 4.0 4.0 0.00 0.00 0.00 43 1012.4
20260509230807 87 203 4.0 4.0 0.00 0.00 0.00 43 1012.4
20260509230247 85 180 4.0 4.0 0.00 0.00 0.00 46 1012.6
20260509225727 86 248 4.0 4.0 0.00 0.00 0.00 45 1012.6
20260509225211 85 225 4.0 4.0 0.00 0.00 0.00 45 1012.8
20260509224652 85 225 5.0 5.0 0.00 0.00 0.00 44 1012.8
20260509223632 83 248 6.0 6.0 0.00 0.00 0.00 47 1012.8
20260509223111 84 270 5.0 5.0 0.00 0.00 0.00 48 1013.0
20260509222552 83 248 5.0 5.0 0.00 0.00 0.00 52 1013.0
20260509222038 83 248 4.0 4.0 0.00 0.00 0.00 53 1013.0
20260509221517 83 270 4.0 4.0 0.00 0.00 0.00 53 1013.1
20260509215922 82 203 6.0 6.0 0.00 0.00 0.00 53 1013.1
20260509215402 83 225 6.0 6.0 0.00 0.00 0.00 52 1013.3
20260509214321 84 225 5.0 5.0 0.00 0.00 0.00 53 1013.4
20260509213806 83 203 4.0 4.0 0.00 0.00 0.00 55 1013.4
20260509212647 84 270 3.0 3.0 0.00 0.00 0.00 55 1013.5
20260509211612 82 248 4.0 4.0 0.00 0.00 0.00 55 1013.6
20260509211052 84 135 3.0 3.0 0.00 0.00 0.00 55 1013.6
20260509210532 83 248 2.0 2.0 0.00 0.00 0.00 56 1013.7
20260509205822 83 248 4.0 4.0 0.00 0.00 0.00 56 1013.7
20260509205306 81 135 5.0 5.0 0.00 0.00 0.00 56 1013.7
20260509204747 82 203 5.0 5.0 0.00 0.00 0.00 55 1013.7
20260509203147 80 180 5.0 5.0 0.00 0.00 0.00 56 1013.8
20260509202632 82 270 4.0 4.0 0.00 0.00 0.00 56 1013.9
20260509202112 82 113 5.0 5.0 0.00 0.00 0.00 55 1013.9
20260509201052 80 203 5.0 5.0 0.00 0.00 0.00 57 1014.1
20260509200532 80 225 4.0 4.0 0.00 0.00 0.00 57 1014.1
20260509195957 80 225 4.0 4.0 0.00 0.00 0.00 56 1014.1
20260509195437 79 203 4.0 4.0 0.00 0.00 0.00 57 1014.2
20260509194917 80 225 5.0 5.0 0.00 0.00 0.00 56 1014.2
20260509194402 81 270 5.0 5.0 0.00 0.00 0.00 56 1014.3
20260509193842 80 225 5.0 5.0 0.00 0.00 0.00 57 1014.3
20260509193342 81 248 5.0 5.0 0.00 0.00 0.00 55 1014.3
20260509192822 80 225 4.0 4.0 0.00 0.00 0.00 57 1014.3
20260509191802 81 203 4.0 4.0 0.00 0.00 0.00 55 1014.4
20260509191247 81 203 4.0 4.0 0.00 0.00 0.00 55 1014.4
20260509190727 82 203 4.0 4.0 0.00 0.00 0.00 55 1014.5
20260509185647 81 203 2.0 2.0 0.00 0.00 0.00 56 1014.5
20260509184612 81 158 4.0 4.0 0.00 0.00 0.00 55 1014.5
20260509184052 80 180 4.0 4.0 0.00 0.00 0.00 55 1014.6
20260509183532 79 203 3.0 3.0 0.00 0.00 0.00 57 1014.6
20260509182457 81 225 2.0 2.0 0.00 0.00 0.00 54 1014.6
20260509181937 82 68 4.0 4.0 0.00 0.00 0.00 54 1014.7
20260509181417 80 338 3.0 3.0 0.00 0.00 0.00 55 1014.7
20260509180857 79 158 4.0 4.0 0.00 0.00 0.00 55 1014.7
20260509180342 79 113 3.0 3.0 0.00 0.00 0.00 56 1014.7
20260509175822 77 158 3.0 3.0 0.00 0.00 0.00 57 1014.7
20260509175306 78 90 4.0 4.0 0.00 0.00 0.00 57 1014.7
20260509174742 77 68 2.0 2.0 0.00 0.00 0.00 57 1014.7
20260509174227 77 45 4.0 4.0 0.00 0.00 0.00 57 1014.7
20260509173707 77 45 4.0 4.0 0.00 0.00 0.00 57 1014.7
20260509173147 77 23 3.0 3.0 0.00 0.00 0.00 57 1014.7
20260509172612 77 90 3.0 3.0 0.00 0.00 0.00 57 1014.7
20260509172052 77 23 4.0 4.0 0.00 0.00 0.00 56 1014.7
20260509171532 77 90 3.0 3.0 0.00 0.00 0.00 57 1014.7
20260509171012 77 135 2.0 2.0 0.00 0.00 0.00 57 1014.7
20260509170457 75 315 2.0 2.0 0.00 0.00 0.00 58 1014.8
20260509165417 74 270 1.0 1.0 0.00 0.00 0.00 59 1014.7
20260509164857 75 90 4.0 4.0 0.00 0.00 0.00 58 1014.7
20260509164342 74 225 3.0 3.0 0.00 0.00 0.00 60 1014.7
20260509163822 72 225 2.0 2.0 0.00 0.00 0.00 61 1014.7
20260509163302 72 68 4.0 4.0 0.00 0.00 0.00 61 1014.7
20260509162742 72 113 3.0 3.0 0.00 0.00 0.00 61 1014.8
20260509162227 71 113 3.0 3.0 0.00 0.00 0.00 62 1014.8
20260509161707 70 68 2.0 2.0 0.00 0.00 0.00 63 1014.8
20260509161148 69 45 2.0 2.0 0.00 0.00 0.00 64 1014.8
20260509160612 68 113 3.0 3.0 0.00 0.00 0.00 67 1014.8
20260509160052 68 45 3.0 3.0 0.00 0.00 0.00 65 1014.8
20260509155533 68 45 3.0 3.0 0.00 0.00 0.00 66 1014.8
20260509155012 68 90 3.0 3.0 0.00 0.00 0.00 66 1014.8
20260509154457 68 68 3.0 3.0 0.00 0.00 0.00 67 1014.8
20260509153937 66 68 3.0 3.0 0.00 0.00 0.00 68 1014.8
20260509152857 66 90 4.0 4.0 0.00 0.00 0.00 68 1014.8